Terminal Aerodrome Forecast
Issued by NWS

Home | Current Version | Previous Version | Graphics & Text | Print | Product List | Glossary Off
Versions: 1 2 3 4 5 6 7 8 9 10 11 12 13 14 15 16 17 18

000
FTUS43 KDDC 202320
TAFHYS
TAF
KHYS 202320Z 2100/2124 19003KT P6SM SKC
     FM210300 04007KT 4SM BR BKN200
     FM210600 03007KT 1/2SM FG OVC003
     FM211600 03008KT 1 1/2SM BR OVC003
     FM211900 04009KT 4SM -SN OVC003
     FM212200 02013G23KT 2SM -SN OVC003=

USA.gov is the U.S. government's official web portal to all federal, state and local government web resources and services.